• în Republica Moldova
  • Lista ţărilor
  • Pe 7 zile
  • Temperatura apei
  • Hartă satelitară
  • Meteo pe hartă
  • Widget-uri
  • user-avatar
    Intrare

    Meteo pe oră la Gjirokaster

    Astăzi, 22 Iunie, Vineri

    Timp Temperatura Precipitaţii Vânt Presiune Umiditate
    00:00 +14°C° 0 mm 1 m/s 652 mmHg 78%
    01:00 +13°C° 0 mm 1 m/s 652 mmHg 78%
    02:00 +13°C° 0 mm 1 m/s 652 mmHg 78%
    03:00 +13°C° 0 mm 1 m/s 652 mmHg 78%
    04:00 +12°C° 0 mm 1 m/s 652 mmHg 78%
    05:00 +14°C° 0 mm 1 m/s 652 mmHg 74%
    06:00 +15°C° 0 mm 1 m/s 652 mmHg 70%
    07:00 +18°C° 0 mm 1 m/s 653 mmHg 66%
    08:00 +19°C° 0 mm 1 m/s 653 mmHg 63%
    09:00 +19°C° 0 mm 2 m/s 653 mmHg 59%
    10:00 +20°C° 0 mm 2 m/s 653 mmHg 55%
    11:00 +21°C° 0,2 mm 2 m/s 653 mmHg 56%
    12:00 +21°C° 0,2 mm 3 m/s 653 mmHg 57%
    13:00 +21°C° 0,2 mm 3 m/s 653 mmHg 57%
    14:00 +21°C° 0,9 mm 3 m/s 653 mmHg 60%
    15:00 +20°C° 0,9 mm 3 m/s 652 mmHg 63%
    16:00 +20°C° 0,9 mm 3 m/s 652 mmHg 67%
    17:00 +18°C° 0,3 mm 2 m/s 652 mmHg 72%
    18:00 +17°C° 0,3 mm 2 m/s 651 mmHg 77%
    19:00 +16°C° 0,3 mm 1 m/s 651 mmHg 82%
    20:00 +15°C° 0,1 mm 1 m/s 651 mmHg 84%
    21:00 +14°C° 0,1 mm 1 m/s 651 mmHg 86%
    22:00 +14°C° 0,1 mm 1 m/s 651 mmHg 88%
    23:00 +13°C° 0 mm 1 m/s 651 mmHg 88%

    Mâine, 23 Iunie, Sâmbătă

    Timp Temperatura Precipitaţii Vânt Presiune Umiditate
    00:00 +13°C° 0 mm 1 m/s 651 mmHg 89%
    01:00 +12°C° 0 mm 1 m/s 651 mmHg 90%
    02:00 +12°C° 0 mm 1 m/s 651 mmHg 90%
    03:00 +12°C° 0 mm 1 m/s 651 mmHg 90%
    04:00 +12°C° 0 mm 1 m/s 650 mmHg 89%
    05:00 +13°C° 0 mm 1 m/s 651 mmHg 84%
    06:00 +15°C° 0 mm 1 m/s 651 mmHg 80%
    07:00 +16°C° 0 mm 1 m/s 652 mmHg 75%
    08:00 +16°C° 0,5 mm 1 m/s 652 mmHg 75%
    09:00 +16°C° 0,5 mm 1 m/s 652 mmHg 76%
    10:00 +16°C° 0,5 mm 1 m/s 653 mmHg 76%
    11:00 +16°C° 0,7 mm 1 m/s 653 mmHg 77%
    12:00 +16°C° 0,7 mm 1 m/s 653 mmHg 77%
    13:00 +16°C° 0,7 mm 1 m/s 653 mmHg 77%
    14:00 +18°C° 0,1 mm 1 m/s 653 mmHg 73%
    15:00 +18°C° 0,1 mm 1 m/s 653 mmHg 69%
    16:00 +19°C° 0,1 mm 1 m/s 652 mmHg 64%
    17:00 +17°C° 0 mm 2 m/s 652 mmHg 69%
    18:00 +16°C° 0 mm 2 m/s 652 mmHg 74%
    19:00 +15°C° 0 mm 2 m/s 652 mmHg 78%
    20:00 +14°C° 0 mm 2 m/s 652 mmHg 80%
    21:00 +12°C° 0 mm 3 m/s 652 mmHg 81%
    22:00 +11°C° 0 mm 3 m/s 652 mmHg 82%
    23:00 +11°C° 0,1 mm 3 m/s 652 mmHg 82%

    Poimâine, 24 Iunie, Duminică

    Timp Temperatura Precipitaţii Vânt Presiune Umiditate
    00:00 +10°C° 0,1 mm 2 m/s 652 mmHg 81%
    01:00 +10°C° 0,1 mm 2 m/s 651 mmHg 81%
    02:00 +10°C° 0 mm 2 m/s 651 mmHg 79%
    03:00 +9°C° 0 mm 2 m/s 651 mmHg 77%
    04:00 +9°C° 0 mm 2 m/s 651 mmHg 75%
    05:00 +12°C° 0 mm 2 m/s 651 mmHg 71%
    06:00 +13°C° 0 mm 2 m/s 652 mmHg 67%
    07:00 +14°C° 0 mm 2 m/s 652 mmHg 63%
    08:00 +16°C° 0 mm 2 m/s 653 mmHg 60%
    09:00 +18°C° 0 mm 1 m/s 653 mmHg 56%
    10:00 +19°C° 0 mm 1 m/s 653 mmHg 53%
    11:00 +20°C° 0,1 mm 1 m/s 653 mmHg 53%
    12:00 +20°C° 0,1 mm 1 m/s 653 mmHg 53%
    13:00 +20°C° 0,1 mm 2 m/s 653 mmHg 54%
    14:00 +19°C° 0,2 mm 2 m/s 653 mmHg 56%
    15:00 +19°C° 0,2 mm 2 m/s 653 mmHg 57%
    16:00 +19°C° 0,2 mm 2 m/s 652 mmHg 59%
    17:00 +17°C° 0,2 mm 2 m/s 652 mmHg 64%
    18:00 +16°C° 0,2 mm 2 m/s 652 mmHg 69%
    19:00 +15°C° 0,2 mm 2 m/s 651 mmHg 74%
    20:00 +14°C° 0,1 mm 2 m/s 651 mmHg 76%
    21:00 +14°C° 0,1 mm 2 m/s 651 mmHg 77%
    22:00 +13°C° 0,1 mm 2 m/s 651 mmHg 79%
    23:00 +13°C° 0,2 mm 2 m/s 651 mmHg 80%

    25 Iunie, Luni

    Timp Temperatura Precipitaţii Vânt Presiune Umiditate
    00:00 +12°C° 0,2 mm 2 m/s 651 mmHg 81%
    01:00 +12°C° 0,2 mm 2 m/s 651 mmHg 83%
    02:00 +12°C° 0,2 mm 2 m/s 650 mmHg 84%
    03:00 +10°C° 0,2 mm 2 m/s 650 mmHg 85%
    04:00 +10°C° 0,2 mm 2 m/s 650 mmHg 86%
    05:00 +12°C° 0,4 mm 2 m/s 650 mmHg 84%
    06:00 +13°C° 0,4 mm 2 m/s 650 mmHg 81%
    07:00 +14°C° 0,4 mm 2 m/s 650 mmHg 79%
    08:00 +14°C° 0,7 mm 2 m/s 650 mmHg 77%
    09:00 +15°C° 0,7 mm 2 m/s 651 mmHg 76%
    10:00 +15°C° 0,7 mm 2 m/s 651 mmHg 74%
    11:00 +15°C° 1,2 mm 2 m/s 651 mmHg 75%
    12:00 +15°C° 1,2 mm 2 m/s 650 mmHg 76%
    13:00 +15°C° 1,2 mm 2 m/s 650 mmHg 77%
    14:00 +14°C° 1,1 mm 2 m/s 650 mmHg 78%
    15:00 +14°C° 1,1 mm 2 m/s 650 mmHg 79%
    16:00 +13°C° 1,1 mm 3 m/s 650 mmHg 80%
    17:00 +13°C° 1,5 mm 3 m/s 650 mmHg 83%
    18:00 +12°C° 1,5 mm 3 m/s 650 mmHg 86%
    19:00 +11°C° 1,5 mm 3 m/s 650 mmHg 89%
    20:00 +11°C° 0,9 mm 3 m/s 649 mmHg 89%
    21:00 +11°C° 0,9 mm 3 m/s 649 mmHg 89%
    22:00 +10°C° 0,9 mm 3 m/s 649 mmHg 90%
    23:00 +10°C° 0,5 mm 3 m/s 649 mmHg 90%

    26 Iunie, Marţi

    Timp Temperatura Precipitaţii Vânt Presiune Umiditate
    00:00 +10°C° 0,5 mm 3 m/s 649 mmHg 90%
    01:00 +10°C° 0,5 mm 3 m/s 648 mmHg 90%
    02:00 +10°C° 0,7 mm 3 m/s 648 mmHg 90%
    03:00 +10°C° 0,7 mm 3 m/s 648 mmHg 90%
    04:00 +9°C° 0,7 mm 3 m/s 647 mmHg 91%
    05:00 +10°C° 0,4 mm 3 m/s 647 mmHg 89%
    06:00 +10°C° 0,4 mm 3 m/s 647 mmHg 88%
    07:00 +11°C° 0,4 mm 3 m/s 647 mmHg 87%
    08:00 +11°C° 0,7 mm 3 m/s 647 mmHg 86%
    09:00 +11°C° 0,7 mm 3 m/s 648 mmHg 85%
    10:00 +11°C° 0,7 mm 3 m/s 648 mmHg 84%
    11:00 +12°C° 0,2 mm 3 m/s 648 mmHg 79%
    12:00 +13°C° 0,2 mm 3 m/s 648 mmHg 74%
    13:00 +14°C° 0,2 mm 3 m/s 648 mmHg 69%
    14:00 +16°C° 0 mm 2 m/s 648 mmHg 66%
    15:00 +16°C° 0 mm 2 m/s 648 mmHg 64%
    16:00 +17°C° 0 mm 2 m/s 648 mmHg 62%
    17:00 +16°C° 0 mm 2 m/s 648 mmHg 67%
    18:00 +15°C° 0 mm 2 m/s 648 mmHg 72%
    19:00 +14°C° 0 mm 2 m/s 648 mmHg 76%
    20:00 +13°C° 0 mm 2 m/s 648 mmHg 78%
    21:00 +13°C° 0 mm 2 m/s 648 mmHg 79%
    22:00 +12°C° 0 mm 2 m/s 648 mmHg 80%
    23:00 +12°C° 0 mm 2 m/s 648 mmHg 82%

    27 Iunie, Miercuri

    Timp Temperatura Precipitaţii Vânt Presiune Umiditate
    00:00 +10°C° 0 mm 2 m/s 647 mmHg 83%
    01:00 +10°C° 0 mm 2 m/s 647 mmHg 84%
    02:00 +10°C° 0 mm 2 m/s 647 mmHg 85%
    03:00 +10°C° 0 mm 2 m/s 647 mmHg 85%
    04:00 +9°C° 0 mm 2 m/s 647 mmHg 86%
    05:00 +12°C° 0 mm 2 m/s 647 mmHg 82%
    06:00 +13°C° 0 mm 2 m/s 648 mmHg 78%
    07:00 +15°C° 0 mm 2 m/s 648 mmHg 74%
    08:00 +16°C° 0,1 mm 2 m/s 649 mmHg 70%
    09:00 +17°C° 0,1 mm 2 m/s 649 mmHg 67%
    10:00 +19°C° 0,1 mm 1 m/s 650 mmHg 63%
    11:00 +18°C° 0,6 mm 2 m/s 650 mmHg 65%
    12:00 +18°C° 0,6 mm 2 m/s 649 mmHg 67%
    13:00 +17°C° 0,6 mm 2 m/s 649 mmHg 69%
    14:00 +17°C° 0,6 mm 2 m/s 649 mmHg 70%
    15:00 +17°C° 0,6 mm 2 m/s 649 mmHg 72%
    16:00 +17°C° 0,6 mm 2 m/s 649 mmHg 73%
    17:00 +16°C° 0,2 mm 2 m/s 649 mmHg 75%
    18:00 +15°C° 0,2 mm 2 m/s 649 mmHg 78%
    19:00 +14°C° 0,2 mm 1 m/s 649 mmHg 80%
    20:00 +14°C° 0,1 mm 2 m/s 649 mmHg 81%
    21:00 +13°C° 0,1 mm 2 m/s 649 mmHg 82%
    22:00 +13°C° 0,1 mm 2 m/s 649 mmHg 83%
    23:00 +12°C° 0,3 mm 2 m/s 649 mmHg 84%
    Arată mai mult